SCP
0 0 0 0 0 0 0 0 0 0 0 0 0 0 0 0 0 0 0 0 0 0 0 0 0 0 0 0 0 0 0 0 0 0 0 0 0 0 0 0 0 0 0
0 0 0 0 0 0 0 0 0 0 0 0 0 0 0 0 0 0 0 0 0 0 0 0 0 0 0 0 0 0 0 0 0 0 0 0 0 0 0 0 0 0 0
0 0 0 0 0 0 0 0 0 0 0 0 0 0 0 0 0 0 0 0 0 0 0 0 0 0 0 0 0 0 0 0 0 0 0 0 0 0 0 0 0 0 0
0 0 0 0 0 0 0 0 0 0 0 0 0 0 0 0 0 0 0 0 0 0 0 0 0 0 0 0 0 0 0 0 0 0 0 0 0 0 0 0 0 0 0
0 0 0 0 0 0 0 0 0 0 0 0 0 0 0 0 0 0 0 0 0 0 0 0 0 0 0 0 0 0 0 0 0 0 0 0 0 0 0 0 0 0 0
0 0 0 0 0 0 0 0 0 0 0 0 0 0 0 0 0 0 0 0 0 0 0 0 0 0 0 0 0 0 0 0 0 0 0 0 0 0 0 0 0 0 0
0 0 0 0 0 0 0 0 0 0 0 0 0 0 0 0 0 0 0 0 0 0 0 0 0 0 0 0 0 0 0 0 0 0 0 0 0 0 0 0 0 0 0
0 0 0 0 0 0 0 0 0 0 0 0 0 0 0 0 0 0 0 0 0 0 0 0 0 0 0 0 0 0 0 0 0 0 0 0 0 0 0 0 0 0 0
0 0 0 0 0 0 0 0 0 0 0 0 0 0 0 0 0 0 0 0 0 0 0 0 0 0 0 0 0 0 0 0 0 0 0 0 0 0 0 0 0 0 0
0 0 0 0 0 0 0 0 0 0 0 0 0 0 0 0 0 0 0 0 0 0 0 0 0 0 0 0 0 0 0 0 0 0 0 0 0 0 0 0 0 0 0
0 0 0 0 0 0 0 0 0 0 0 0 0 0 0 0 0 0 0 0 0 0 0 0 0 0 0 0 0 0 0 0 0 0 0 0 0 0 0 0 0 0 0
0 0 0 0 0 0 0 0 0 0 0 0 0 0 0 0 0 0 0 0 0 0 0 0 0 0 0 0 0 0 0 0 0 0 0 0 0 0 0 0 0 0 0
0 0 0 0 0 0 0 0 0 0 0 0 0 0 0 0 0 0 0 0 0 0 0 0 0 0 0 0 0 0 0 0 0 0 0 0 0 0 0 0 0 0 0
0 0 0 0 0 0 0 0 0 0 0 0 0 0 0 0 0 0 0 0 0 0 0 0 0 0 0 0 0 0 0 0 0 0 0 0 0 0 0 0 0 0 0
0 0 0 0 0 0 0 0 0 0 0 0 0 0 0 0 0 0 0 0 0 0 0 0 0 0 0 0 0 0 0 0 0 0 0 0 0 0 0 0 0 0 0
0 0 0 0 0 0 0 0 0 0 0 0 0 0 0 0 0 0 0 0 0 0 0 0 0 0 0 0 0 0 0 0 0 0 0 0 0 0 0 0 0 0 0
0 0 0 0 0 0 0 0 0 0 0 0 0 0 0 0 0 0 0 0 0 0 0 0 0 0 0 0 0 0 0 0 0 0 0 0 0 0 0 0 0 0 0
0 0 0 0 0 0 0 0 0 0 0 0 0 0 0 0 0 0 0 0 0 0 0 0 0 0 0 0 0 0 0 0 0 0 0 0 0 0 0 0 0 0 0
0 0 0 0 0 0 0 0 0 0 0 0 0 0 0 0 0 0 0 0 0 0 0 0 0 0 0 0 0 0 0 0 0 0 0 0 0 0 0 0 0 0 0
0 0 0 0 0 0 0 0 0 0 0 0 0 0 0 0 0 0 0 0 0 0 0 0 0 0 0 0 0 0 0 0 0 0 0 0 0 0 0 0 0 0 0
0 0 0 0 0 0 0 0 0 0 0 0 0 0 0 0 0 0 0 0 0 0 0 0 0 0 0 0 0 0 0 0 0 0 0 0 0 0 0 0 0 0 0
0 0 0 0 0 0 0 0 0 0 0 0 0 0 0 0 0 0 0 0 0 0 0 0 0 0 0 0 0 0 0 0 0 0 0 0 0 0 0 0 0 0 0
0 0 0 0 0 0 0 0 0 0 0 0 0 0 0 0 0 0 0 0 0 0 0 0 0 0 0 0 0 0 0 0 0 0 0 0 0 0 0 0 0 0 0
0 0 0 0 0 0 0 0 0 0 0 0 0 0 0 0 0 0 0 0 0 0 0 0 0 0 0 0 0 0 0 0 0 0 0 0 0 0 0 0 0 0 0
0 0 0 0 0 0 0 0 0 0 0 0 0 0 0 0 0 0 0 0 0 0 0 0 0 0 0 0 0 0 0 0 0 0 0 0 0 0 0 0 0 0 0
0 0 0 0 0 0 0 0 0 0 0 0 0 0 0 0 0 0 0 0 0 0 0 0 0 0 0 0 0 0 0 0 0 0 0 0 0 0 0 0 0 0 0
Wind_Speed
6 4 4 4 3 2 2 4 5 5 4 3 3 3 3 3 2 3 4 5 6 8 10 9 10 10 8 7 6 7 6 6 9 9 7 6 6 6 7 4 2 3 3
5 4 3 3 3 3 4 5 4 5 5 3 3 4 1 2 3 3 5 6 7 10 11 11 12 10 9 8 6 8 7 7 8 9 7 5 6 7 5 3 2 2 1
4 3 3 3 3 4 4 3 2 3 4 4 4 5 4 6 5 4 5 7 8 10 10 11 12 11 10 8 8 7 7 7 6 7 8 5 4 4 1 1 2 2 2
2 2 3 4 3 4 3 4 4 4 5 6 5 6 7 6 5 4 5 7 8 10 11 10 11 10 11 9 6 7 8 7 7 7 8 7 6 5 3 2 2 2 2
3 4 4 5 4 4 4 5 5 3 4 6 6 7 8 5 5 5 5 7 8 9 10 11 10 13 17 11 10 8 8 8 8 8 9 8 6 5 4 2 3 2 2
4 4 4 4 4 4 6 6 5 4 5 6 7 7 8 6 6 5 8 7 8 9 10 10 10 14 12 15 17 17 17 15 13 12 9 8 8 5 2 3 4 2 1
2 3 3 4 5 7 7 7 6 5 5 7 8 8 8 5 6 10 14 8 8 9 10 9 8 10 10 9 15 19 19 23 23 17 13 12 7 5 4 4 4 3 2
3 5 6 6 7 9 7 7 7 5 6 6 6 7 5 5 7 10 15 9 9 10 11 9 9 9 9 12 12 12 13 15 16 12 11 10 6 4 5 5 7 8 6
5 7 7 7 9 9 9 8 6 5 3 4 5 5 3 2 7 13 13 8 8 11 11 10 9 8 14 16 11 12 13 13 11 6 5 9 8 12 12 10 8 7 4
6 7 7 7 7 8 8 6 4 3 3 4 6 6 4 3 7 12 14 8 8 9 10 10 11 12 15 16 10 10 12 11 6 6 10 11 10 10 10 7 6 6 5
6 6 7 7 6 5 6 5 7 6 6 7 5 5 5 5 8 13 17 11 9 9 8 9 9 14 16 13 11 9 9 5 4 6 8 8 8 7 8 7 5 4 4
5 6 8 7 8 8 10 9 8 7 6 5 4 5 5 6 9 14 17 16 15 10 9 8 9 14 14 10 10 12 7 3 3 5 6 6 6 7 7 7 7 7 7
6 7 6 9 9 7 7 6 5 5 4 4 4 5 7 7 7 13 15 16 17 12 10 13 13 13 10 7 12 13 6 3 4 5 6 6 6 7 8 8 9 10 10
6 6 6 9 7 5 4 4 4 4 4 5 5 5 6 7 7 8 8 9 12 11 10 11 12 9 7 8 9 8 4 4 5 6 6 7 7 7 6 7 8 8 10
5 6 7 6 5 3 3 3 2 1 2 4 6 5 5 7 10 13 11 10 9 11 10 6 6 7 6 6 6 6 5 5 6 7 7 6 7 7 7 7 7 8 9
6 7 5 4 2 3 3 3 5 6 8 8 9 7 5 8 14 16 17 18 16 15 7 6 6 6 6 6 6 6 6 6 6 7 6 7 7 7 8 7 7 7 7
7 6 5 5 4 3 3 4 5 8 8 8 12 12 12 11 14 17 18 16 12 10 7 7 7 7 5 5 5 6 5 6 6 6 6 7 8 7 8 7 6 7 7
8 7 6 4 3 4 4 4 4 5 6 6 9 11 14 15 15 16 17 12 10 10 8 8 8 8 7 5 5 4 5 5 5 6 7 7 8 7 6 6 6 6 6
7 6 5 4 4 5 5 6 6 6 6 6 8 10 12 13 12 13 13 9 8 8 9 8 8 7 6 5 3 3 5 6 6 6 7 7 5 5 6 6 5 7 5
8 9 6 4 4 5 5 6 6 6 6 6 7 8 9 9 8 9 9 8 8 8 8 8 8 7 6 5 4 5 5 6 5 5 6 5 4 5 5 4 4 6 5
6 6 7 5 4 4 4 6 6 7 7 7 6 8 12 8 7 8 8 8 8 8 8 7 7 6 6 5 4 4 5 5 4 4 4 4 4 3 3 3 4 5 7
6 5 5 4 3 4 4 4 5 6 7 8 7 9 12 8 7 7 8 9 8 8 7 7 6 6 5 5 4 4 5 4 4 4 4 4 4 3 3 3 5 7 8
6 6 5 4 4 4 4 3 4 5 5 7 8 8 8 8 8 8 8 9 9 9 9 8 8 8 8 7 5 4 3 3 3 4 4 3 3 4 4 4 6 7 8
6 6 6 4 4 4 4 4 5 6 7 7 7 8 8 8 8 9 9 9 9 9 9 9 9 10 11 8 6 5 3 2 3 4 3 3 4 5 4 3 3 6 7
6 6 6 5 4 3 4 4 5 6 6 6 6 7 8 8 9 9 9 9 9 9 10 10 9 11 13 13 12 9 5 2 3 3 2 3 4 4 3 2 3 6 7
6 6 6 5 4 3 3 4 4 5 6 7 7 8 8 8 8 9 9 9 9 10 10 10 12 14 14 12 14 12 7 3 3 3 3 2 2 2 1 1 3 5 6
Wind_Direction
72 63 54 47 42 24 345 336 332 327 324 306 305 318 324 337 359 338 317 312 310 305 305 297 289 285 280 279 273 273 264 259 278 284 285 287 285 289 295 299 251 132 142
84 60 30 11 354 339 331 335 346 339 323 301 308 302 244 226 251 274 298 308 308 304 303 294 283 280 278 278 273 270 261 258 264 284 297 293 283 276 286 295 147 131 119
74 50 358 341 348 338 339 330 323 317 318 337 335 298 240 242 253 268 304 306 305 301 297 290 287 281 276 271 263 265 266 266 265 273 284 284 278 264 240 147 104 54 10
43 17 325 315 327 317 324 296 290 311 328 335 320 287 261 257 263 275 294 298 299 301 301 292 285 279 278 278 279 280 283 283 280 276 278 279 281 275 229 182 146 73 18
356 337 315 295 303 311 297 277 280 316 319 306 301 292 278 271 243 250 299 297 295 297 301 302 299 305 309 315 309 300 298 294 288 280 275 271 261 257 231 161 130 128 40
323 311 314 314 317 297 273 268 287 309 298 299 294 288 292 285 258 332 335 310 300 302 300 298 302 311 305 314 314 311 303 293 284 272 266 260 254 243 196 151 138 155 115
270 278 297 304 306 281 268 277 278 272 266 274 284 299 305 320 22 0 337 327 310 300 293 292 304 306 315 314 317 310 297 287 282 271 251 243 237 218 166 142 128 94 76
239 265 271 269 264 264 271 276 265 252 252 273 306 336 10 43 21 347 340 328 304 295 293 293 294 299 317 322 313 300 294 292 286 271 234 214 204 171 147 122 109 102 78
268 274 272 262 259 265 268 269 270 260 289 341 10 24 31 348 356 348 333 310 304 302 301 299 304 318 320 320 315 309 306 303 302 299 149 143 140 130 125 118 122 120 92
281 287 289 281 271 270 277 296 286 46 52 42 35 13 341 315 323 333 332 319 311 308 308 309 313 317 318 321 318 312 307 311 338 57 77 82 95 103 99 102 128 128 118
305 319 324 332 340 4 21 20 51 58 51 38 13 339 331 328 323 330 329 326 319 314 310 311 310 314 319 320 322 308 298 303 9 67 85 82 78 73 73 75 75 103 110
337 349 352 18 52 63 67 54 51 47 41 15 350 338 325 317 326 327 326 326 323 317 310 308 313 319 323 334 330 324 334 40 51 72 82 82 84 83 81 80 78 77 81
9 12 27 61 60 60 64 56 48 42 32 4 348 336 326 323 325 329 331 330 326 326 319 324 331 330 339 352 338 340 4 54 67 79 82 80 79 87 91 89 85 85 80
25 31 59 76 73 55 50 56 56 41 19 354 344 335 332 339 338 336 334 329 331 332 330 331 335 337 352 10 354 347 18 70 74 82 87 89 87 86 82 91 98 97 97
46 58 69 85 83 73 55 37 37 5 49 17 359 338 333 346 341 338 340 341 340 340 335 336 347 351 6 21 7 4 23 54 73 85 93 95 90 88 78 86 92 96 101
65 65 80 93 77 49 38 359 340 339 345 30 14 8 348 344 343 345 350 345 342 340 343 352 352 352 14 27 19 21 32 48 67 89 93 90 95 91 91 88 88 95 98
86 86 77 69 53 32 29 25 358 345 2 36 16 3 359 355 356 353 349 342 343 352 5 357 352 350 22 43 37 37 42 42 68 84 94 97 101 99 102 103 98 98 98
89 85 78 70 54 40 26 13 9 1 359 3 4 359 357 356 355 352 349 351 1 5 2 355 352 358 24 60 55 53 51 55 50 71 88 92 101 110 111 110 107 99 99
102 94 87 72 55 43 26 27 22 14 7 0 359 358 356 354 353 353 355 2 359 352 349 349 351 1 20 43 56 50 53 67 60 65 80 92 100 89 105 123 114 112 110
102 103 95 73 53 38 32 37 24 14 10 8 8 0 350 357 1 354 350 351 353 351 346 346 346 353 1 11 36 48 58 68 65 62 77 89 80 83 95 99 99 108 105
112 105 95 77 59 47 34 37 31 21 17 12 10 1 355 1 356 348 344 347 348 347 346 344 343 348 358 8 29 45 54 61 61 59 67 76 83 83 78 87 97 104 108
114 112 103 91 69 56 47 40 38 27 22 17 9 2 0 5 0 352 349 348 347 347 347 345 348 356 359 6 24 46 58 60 55 66 66 66 76 73 64 68 92 107 109
107 111 110 96 71 54 42 30 30 23 20 24 18 11 8 7 4 360 355 352 354 357 1 6 7 8 9 8 11 23 52 74 71 80 83 78 63 64 68 68 95 110 117
96 104 111 106 84 58 38 19 19 31 30 28 26 21 13 9 8 5 2 357 360 3 8 10 7 1 3 5 3 5 7 39 78 84 66 76 75 69 76 75 96 123 126
92 90 92 100 98 82 60 43 25 15 15 15 23 24 20 15 12 10 5 3 5 6 8 8 5 1 2 9 4 356 351 358 95 104 77 59 64 65 62 62 97 118 124
92 90 85 83 83 75 59 46 32 23 21 19 18 19 19 18 14 10 6 5 7 8 6 6 4 6 5 6 357 351 3 50 131 134 102 62 43 54 91 175 117 121 123